Date String (YYYY-MM-DD hh:mm:ss) UTC,Instrument flags,Ambient pressure (hPa),Sample flow (lpm),Bypass flow (lpm),Sample temperature (°C),Ambient temperature (°C),ASC tube jacket temperature (°C),LED temperature (°C),Box temperature (°C),Sample RH (%),Span deviation,Mass concentration (μg/m³),Mass concentration (μg/m³),Mass concentration (μg/m³)
DateTimeUTC,F1_M11,P_M11,Q1_M11,Q2_M11,T1_M11,T2_M11,T3_M11,T4_M11,T5_M11,U1_M11,ZSPAN_M11,X0_M11,X2_M11,X1_M11
2022-11-11 03:00:00,,0826.8,5.01,0.00,21.9,20.1,00.0,30.8,23.7,11.5,0002.2,0017.57,0007.85,0006.82
2022-11-11 03:01:00,,0826.8,4.98,0.00,21.9,20.2,00.0,30.8,23.7,11.6,0002.1,0018.05,0007.92,0006.87
2022-11-11 03:02:00,,0826.8,5.01,0.00,21.9,20.1,00.0,30.8,23.7,11.6,0001.7,0017.94,0007.95,0006.90
2022-11-11 03:03:00,,0826.8,4.98,0.00,21.9,20.1,00.0,30.8,23.7,11.7,0001.1,0017.67,0007.96,0006.93
2022-11-11 03:04:00,,0826.8,5.02,0.00,21.9,20.1,00.0,30.8,23.6,11.7,0000.9,0017.42,0007.98,0006.94
2022-11-11 03:05:00,,0827.2,5.00,0.00,21.8,20.1,00.0,30.7,23.6,11.7,-000.1,0017.46,0008.00,0006.96
2022-11-11 03:06:00,,0826.9,5.00,0.00,21.8,20.0,00.0,30.7,23.6,11.8,-000.6,0017.18,0008.01,0006.97
2022-11-11 03:07:00,,0826.9,5.00,0.00,21.8,20.3,00.0,30.7,23.6,11.8,-000.6,0017.13,0008.05,0006.99
2022-11-11 03:08:00,,0826.9,5.02,0.00,21.9,21.2,00.0,30.7,23.8,11.7,-000.7,0018.75,0008.06,0007.01
2022-11-11 03:09:00,,0826.9,4.98,0.00,22.0,21.7,00.0,30.7,24.0,11.7,-000.7,0017.01,0008.05,0007.04
2022-11-11 03:10:00,,0826.9,5.02,0.00,22.0,21.2,00.0,30.7,23.9,11.7,-000.7,0016.93,0008.05,0007.05
2022-11-11 03:11:00,,0826.9,4.99,0.00,21.9,20.8,00.0,30.7,23.8,11.7,-000.4,0016.37,0008.07,0007.07
2022-11-11 03:12:00,,0826.9,5.01,0.00,21.9,20.6,00.0,30.7,23.7,11.7,-000.4,0016.33,0008.03,0007.07
2022-11-11 03:13:00,,0827.0,5.00,0.00,21.9,20.4,00.0,30.7,23.6,11.7,-000.3,0017.81,0008.04,0007.08
2022-11-11 03:14:00,,0826.9,5.02,0.00,21.9,20.2,00.0,30.7,23.6,11.8,-000.2,0018.77,0008.11,0007.12
2022-11-11 03:15:00,,0826.9,4.99,0.00,21.8,20.2,00.0,30.7,23.6,11.8,0000.2,0019.13,0008.17,0007.17
2022-11-11 03:16:00,,0826.9,5.01,0.00,21.8,20.1,00.0,30.7,23.6,11.8,0001.1,0019.12,0008.16,0007.19
2022-11-11 03:17:00,,0827.0,5.00,0.00,21.8,20.1,00.0,30.7,23.6,11.8,0001.8,0019.26,0008.19,0007.21
2022-11-11 03:18:00,,0827.0,5.01,0.00,21.8,20.1,00.0,30.7,23.6,11.8,0001.7,0019.06,0008.25,0007.24
2022-11-11 03:19:00,,0827.0,4.99,0.00,21.8,20.0,00.0,30.7,23.6,11.8,0001.4,0017.23,0008.23,0007.24
2022-11-11 03:20:00,,0827.0,4.98,0.00,21.7,20.0,00.0,30.7,23.5,11.9,0001.3,0018.04,0008.23,0007.23
2022-11-11 03:21:00,,0827.0,5.01,0.00,21.7,19.9,00.0,30.6,23.5,11.9,0001.2,0018.84,0008.28,0007.23
2022-11-11 03:22:00,,0827.3,5.00,0.00,21.7,19.9,00.0,30.6,23.5,11.9,0000.1,0019.05,0008.25,0007.21
2022-11-11 03:23:00,,0827.4,4.98,0.00,21.7,19.8,00.0,30.6,23.4,11.9,-000.2,0018.23,0008.19,0007.19
2022-11-11 03:24:00,,0827.3,5.00,0.00,21.6,19.8,00.0,30.6,23.4,12.0,-000.1,0016.67,0008.12,0007.15
2022-11-11 03:25:00,,0827.5,5.01,0.00,21.6,20.0,00.0,30.6,23.4,12.0,-000.2,0015.87,0007.98,0007.08
2022-11-11 03:26:00,,0827.1,4.99,0.00,21.7,20.9,00.0,30.5,23.6,12.0,-000.6,0016.35,0007.86,0007.01
2022-11-11 03:27:00,,0827.1,5.00,0.00,21.8,21.7,00.0,30.5,23.8,11.9,-000.9,0017.18,0007.77,0006.96
2022-11-11 03:28:00,,0827.1,5.01,0.00,21.8,21.4,00.0,30.6,23.8,11.9,-001.5,0017.06,0007.68,0006.90
2022-11-11 03:29:00,,0827.4,4.99,0.00,21.8,21.0,00.0,30.6,23.8,11.9,-001.4,0016.54,0007.52,0006.82
2022-11-11 03:30:00,,0827.2,5.01,0.00,21.8,20.6,00.0,30.6,23.7,11.9,-001.2,0016.91,0007.47,0006.76
2022-11-11 03:31:00,,0827.1,5.00,0.00,21.8,20.3,00.0,30.6,23.5,11.9,-001.1,0016.76,0007.44,0006.72
2022-11-11 03:32:00,,0827.1,4.99,0.00,21.7,20.1,00.0,30.6,23.5,11.9,-001.0,0016.24,0007.39,0006.70
2022-11-11 03:33:00,,0827.1,4.99,0.00,21.7,20.0,00.0,30.6,23.4,11.9,-000.7,0016.71,0007.33,0006.66
2022-11-11 03:34:00,,0827.2,5.00,0.00,21.6,19.9,00.0,30.6,23.4,12.0,-000.7,0016.76,0007.32,0006.63
2022-11-11 03:35:00,,0827.1,5.01,0.00,21.6,19.8,00.0,30.5,23.3,12.0,-000.7,0016.58,0007.27,0006.61
2022-11-11 03:36:00,,0827.2,5.00,0.00,21.6,19.7,00.0,30.5,23.3,12.0,-000.8,0016.57,0007.25,0006.59
2022-11-11 03:37:00,,0827.2,5.01,0.00,21.6,19.8,00.0,30.5,23.3,12.0,-000.7,0015.64,0007.28,0006.58
2022-11-11 03:38:00,,0827.2,5.01,0.00,21.6,19.8,00.0,30.5,23.3,12.0,-001.0,0015.03,0007.30,0006.56
2022-11-11 03:39:00,,0827.2,5.00,0.00,21.5,19.8,00.0,30.5,23.3,12.0,-000.8,0014.92,0007.32,0006.56
2022-11-11 03:40:00,,0827.2,4.99,0.00,21.5,19.8,00.0,30.5,23.3,12.0,-000.8,0015.39,0007.33,0006.55
2022-11-11 03:41:00,,0827.2,5.00,0.00,21.5,19.9,00.0,30.4,23.3,12.0,-000.6,0014.72,0007.32,0006.57
2022-11-11 03:42:00,,0827.2,5.00,0.00,21.5,19.9,00.0,30.4,23.3,12.0,-001.2,0014.14,0007.29,0006.55
2022-11-11 03:43:00,,0827.2,5.00,0.00,21.5,20.0,00.0,30.4,23.4,12.0,-001.6,0014.36,0007.27,0006.54
2022-11-11 03:44:00,,0827.2,4.99,0.00,21.6,20.1,00.0,30.4,23.4,12.0,-001.5,0013.99,0007.28,0006.54
2022-11-11 03:45:00,,0827.2,5.00,0.00,21.6,20.2,00.0,30.4,23.4,12.0,-001.1,0013.98,0007.26,0006.53
2022-11-11 03:46:00,,0827.2,5.01,0.00,21.6,20.2,00.0,30.4,23.5,12.0,-001.1,0014.42,0007.28,0006.53
2022-11-11 03:47:00,,0827.2,5.01,0.00,21.6,20.5,00.0,30.4,23.5,11.9,-001.0,0014.28,0007.31,0006.55
2022-11-11 03:48:00,,0827.3,4.99,0.00,21.7,21.4,00.0,30.4,23.7,11.9,-000.8,0014.60,0007.28,0006.56
2022-11-11 03:49:00,,0827.4,5.00,0.00,21.8,22.0,00.0,30.4,23.9,11.8,-000.4,0014.49,0007.26,0006.55
2022-11-11 03:50:00,,0827.4,5.01,0.00,21.9,21.7,00.0,30.5,23.9,11.8,-000.4,0014.63,0007.25,0006.55
2022-11-11 03:51:00,,0827.4,5.01,0.00,21.9,21.5,00.0,30.5,23.9,11.7,-000.2,0014.38,0007.25,0006.57
2022-11-11 03:52:00,,0827.4,4.99,0.00,21.9,21.3,00.0,30.5,23.9,11.7,-000.3,0014.39,0007.32,0006.59
2022-11-11 03:53:00,,0827.4,5.01,0.00,21.9,21.2,00.0,30.6,23.9,11.7,-000.2,0014.63,0007.35,0006.61
2022-11-11 03:54:00,,0827.4,5.00,0.00,21.9,21.0,00.0,30.6,23.9,11.6,0000.4,0014.16,0007.36,0006.63
2022-11-11 03:55:00,,0827.4,4.99,0.00,22.0,21.0,00.0,30.6,23.9,11.6,0000.6,0013.68,0007.40,0006.66
2022-11-11 03:56:00,,0827.4,5.00,0.00,22.0,20.9,00.0,30.6,23.9,11.6,0000.7,0013.44,0007.44,0006.70
2022-11-11 03:57:00,,0827.4,5.01,0.00,22.0,20.8,00.0,30.7,23.9,11.6,0000.4,0013.26,0007.52,0006.73
2022-11-11 03:58:00,,0827.4,5.01,0.00,22.0,20.8,00.0,30.7,23.9,11.6,0000.4,0013.23,0007.56,0006.76
2022-11-11 03:59:00,,0827.4,5.00,0.00,22.0,20.8,00.0,30.7,23.9,11.6,0000.4,0013.54,0007.54,0006.76
